Date,TemperatureHighF,TemperatureAvgF,TemperatureLowF,DewpointHighF,DewpointAvgF,DewpointLowF,HumidityHigh,HumidityAvg,HumidityLow,PressureMaxIn,PressureMinIn,WindSpeedMaxMPH,WindSpeedAvgMPH,GustSpeedMaxMPH,PrecipitationSumIn
2013-3-1,33.8,31.2,27.3,32.0,32.0,32.0,79,56,42,30.07,29.86,15,5,15,0.00
2013-3-2,28.0,25.3,0.0,32.0,21.6,0.0,73,55,39,30.07,29.56,13,5,13,0.04
2013-3-3,27.0,23.5,0.0,19.1,10.5,4.3,81,58,42,29.59,29.53,14,5,14,0.00
2013-3-4,34.7,26.5,0.0,12.1,8.4,5.6,56,46,34,29.74,29.56,23,8,23,0.00
2013-3-5,36.3,28.3,23.2,19.9,13.1,8.2,86,54,34,29.77,29.68,11,4,11,0.00
2013-3-6,41.9,33.6,0.0,29.2,22.7,15.5,94,64,47,29.83,29.65,13,4,13,0.00
2013-3-7,40.3,34.6,31.1,30.5,22.8,12.2,84,63,34,29.97,29.83,11,3,11,0.79
2013-3-8,48.7,35.7,29.7,21.6,13.2,6.4,65,41,21,30.06,29.94,15,4,15,0.00
2013-3-9,59.2,36.5,24.6,28.3,20.8,11.8,92,57,20,30.09,29.91,8,2,8,4.17
2013-3-10,70.3,51.3,29.5,17.3,11.4,5.8,57,23,12,29.91,29.65,15,5,20,0.00
2013-3-11,58.8,54.8,52.3,32.8,11.6,7.0,44,18,14,29.65,29.32,22,6,22,0.00
2013-3-12,54.3,40.7,35.6,43.7,24.4,16.3,81,53,38,29.59,29.35,23,8,23,0.00
2013-3-13,43.9,33.0,22.6,28.5,16.0,7.0,86,51,29,29.62,29.50,29,9,29,0.00
2013-3-14,35.6,26.3,19.8,14.8,-0.1,-7.5,72,33,17,29.74,29.62,29,11,29,0.00
2013-3-15,43.9,32.3,24.6,28.3,12.9,1.0,83,46,26,29.74,29.38,27,8,27,0.00
2013-3-16,30.2,25.4,17.4,15.7,7.2,1.9,79,47,32,29.65,29.56,14,4,14,0.00
2013-3-17,34.9,25.0,14.0,18.6,5.1,-11.3,81,45,20,30.03,29.65,15,4,15,0.00
2013-3-18,35.2,25.6,12.0,27.0,7.6,-4.5,81,50,20,30.03,29.41,22,5,22,0.16
2013-3-19,39.7,33.5,26.6,29.2,16.4,4.9,81,51,31,29.50,29.35,31,8,31,7.87
2013-3-20,37.9,28.6,23.9,16.1,8.6,-1.1,69,44,22,29.50,29.47,25,8,25,0.79
2013-3-21,36.9,26.8,20.3,18.6,6.5,-6.6,65,44,20,29.50,29.38,22,7,22,0.00
2013-3-22,36.3,30.0,25.7,23.6,16.8,10.2,85,59,40,29.59,29.41,20,8,20,0.00
2013-3-23,42.1,33.4,28.8,22.6,13.8,7.3,73,45,29,29.68,29.56,22,7,22,0.79
2013-3-24,43.7,33.4,25.3,23.1,14.1,4.4,87,48,23,29.68,29.44,12,4,12,0.00
2013-3-25,42.4,35.8,30.4,25.0,17.4,11.5,78,48,31,29.44,29.32,16,4,16,0.00
2013-3-26,51.1,38.6,30.2,25.7,18.2,8.8,80,46,21,29.62,29.41,13,4,28,0.00
2013-3-27,50.9,37.7,32.7,31.6,20.4,13.1,84,52,26,29.74,29.59,18,7,18,0.00
2013-3-28,49.5,39.5,33.8,29.2,22.1,5.8,79,54,20,29.88,29.71,15,6,15,0.00
2013-3-29,55.9,43.0,36.0,25.2,18.3,4.0,62,41,15,29.88,29.80,17,6,17,0.00
2013-3-30,56.1,40.7,30.9,21.4,11.5,-0.4,56,33,15,29.88,29.71,14,4,14,3.90
2013-3-31,61.2,45.7,35.4,37.7,17.9,5.0,76,38,14,29.71,29.29,100,6,100,0.00